Regional Weather Roundup
Issued by NWS Grand Forks, ND

Home | Current Version | Previous Version | Graphics & Text | Print | Product List | Glossary Off
Versions: 1 2 3 4 5 6 7 8 9 10 11 12 13 14 15 16 17 18 19 20 21 22 23 24 25 26 27 28 29 30 31 32 33 34 35 36 37 38 39 40 41 42 43 44 45 46 47 48 49 50

000
ASUS43 KFGF 252110
RWRFGF
PRAIRIE TO PINES  WEATHER ROUNDUP
NATIONAL WEATHER SERVICE EASTERN NORTH DAKOTA/GRAND FORKS ND
400 PM CDT SUN JUN 25 2017

 **SATELLITE DATA USED TO AUGMENT SKY COVER AT AUTOMATED STATIONS**
 *****  WEATHER ACROSS EASTERN NORTH DAKOTA  *****

CITY           SKY/WX    TMP DP  RH WIND       PRES   REMARKS
GRAND FORKS    FAIR      67  41  38 NW12      30.18F
GRAND FRKS AFB FAIR      66  42  42 N13       30.19F
DEVILS LAKE    CLOUDY    62  40  44 N13G20    30.23S
FARGO          CLOUDY    67  41  38 NW14G26   30.18S
WAHPETON ARPT  MOCLDY    63  41  45 N12G21    30.19F
$$

 ***** WEATHER ACROSS CENTRAL AND WESTERN NORTH DAKOTA  *****

CITY           SKY/WX    TMP DP  RH WIND       PRES   REMARKS
BISMARCK       FAIR      68  49  50 S6        30.23F
MINOT          PTSUNNY   67  43  41 N9        30.23S
JAMESTOWN      PTSUNNY   63  46  54 W9        30.19F
MINOT AFB      CLOUDY    66  44  44 N13       30.23S
GARRISON         N/A     67  43  41 NE13G21   30.22F
WILLISTON      FAIR      75  43  31 N7        30.24F
DICKINSON      FAIR      72  35  25 N12G22    30.22S
HETTINGER      FAIR      75  36  24 N10       30.23F
$$

 *****  OTHER AIRPORT OBSERVATIONS IN OUR AREA  *****

CITY           SKY/WX    TMP DP  RH WIND       PRES   REMARKS
WALHALLA       NOT AVBL
GRAFTON AIRPOR FAIR      64  39  39 N15G22    30.21F
VALLEY CITY AR FAIR      66  46  48 N9        30.21F
CANDO          NOT AVBL
CAVALIER APRT  FAIR      63  43  48 N12       30.21S
GWINNER        PTCLDY    63  48  59 W12G17    30.21S
SHEYENNE NWR     N/A     68  42  38 NW12      29.95S
ROLLA            N/A     61  39  44 N14       30.25S
 ***** THE ABOVE OBSERVATIONS ARE NON NWS ARE NOT QUALITY
       CONTROLLED AND MAY MIS-REPORT RAIN FOR SNOW...
$$

  *****  WEATHER ACROSS NORTHERN MINNESOTA  *****

CITY           SKY/WX    TMP DP  RH WIND       PRES   REMARKS
FLAG ISLAND    FAIR      57  43  58 NW15      30.14F
WARROAD        FAIR      55  48  76 NW8       30.17F
ROSEAU         FAIR      61  48  63 NW13      30.16F
HALLOCK        FAIR      63  43  48 N20       30.19S
THF RVR FALLS  PTSUNNY   63  42  46 NW17G23   30.18F
BAUDETTE       FAIR      60  45  57 NW16      30.15F
WASKISH        PTSUNNY   55  48  76 NW8       30.15F
CROOKSTON      FAIR      64  39  39 N15       30.18F
STEPHEN NDAWN    N/A     63  43  48 NW17        N/A
GREENBUSH NDAW   N/A     61  46  59 NW12        N/A
$$
  *****  WEATHER ACROSS CENTRAL AND WEST MINNESOTA  *****

CITY           SKY/WX    TMP DP  RH WIND       PRES   REMARKS
FOSSTON        FAIR      61  43  51 NW13G23   30.18S
BEMIDJI        CLOUDY    57  41  54 N26G33    30.16R
PARK RAPIDS    FAIR      66  36  32 NW20G28   30.15F
ELBOW LAKE     CLOUDY    61  46  56 W25G33    30.21R
WADENA         PTSUNNY   63  43  48 NW13G21   30.16F
DETROIT LAKES  FAIR      63  41  45 NW15G22   30.19S
MOORHEAD       FAIR      66  39  37 NW13G20   30.18F
FERGUS FALLS   CLOUDY    63  43  48 NW16      30.16S
MORRIS MN      FAIR      70  43  37 NW14G21   30.18F
STAPLES        FAIR      64  37  36 NW15      30.15F
$$
  *****  WEATHER ELSEWHERE ACROSS MINNESOTA  *****

CITY           SKY/WX    TMP DP  RH WIND       PRES   REMARKS
DULUTH         PTSUNNY   58  44  60 N14G25    30.07S
INTRNTL FALLS  PTSUNNY   56  45  66 E9        30.12S
ELY            LGT RAIN  50  48  93 NW9       30.08S
CLOQUET        LGT RAIN  57  48  72 NW12G18   30.10R
WHEATON        FAIR      61  48  63 NW7       30.22S
BRAINERD       FAIR      64  38  38 NW22G28   30.14F
HIBBING        RAIN      51  48  89 NW13      30.11R FOG
ALEXANDRIA     FAIR      65  42  43 NW16G25   30.19F
SAINT CLOUD    FAIR      67  41  38 NW15G25   30.15S
MINNEAPOLIS    PTSUNNY   67  42  40 NW20G28   30.13F
$$

  *****  WEATHER ACROSS SOUTH DAKOTA  *****

CITY           SKY/WX    TMP DP  RH WIND       PRES   REMARKS
SIOUX FALLS    FAIR      71  47  42 N13G22    30.23F
BROOKINGS      FAIR      65  43  44 NW12G20   30.25S
WATERTOWN      PTSUNNY   63  45  51 N15G24    30.25R
HURON          FAIR      71  42  35 W6        30.23F
SISSETON         N/A     70  43  37 W22G29    30.19F
ABERDEEN       LGT RAIN  60  46  59 N12       30.25F
MITCHELL       FAIR      74  39  28 MISG      30.24F
PIERRE         FAIR      77  37  23 S9        30.18F
MOBRIDGE       FAIR      75  40  28 N18       30.19R
RAPID CITY     FAIR      79  36  21 N9        30.23F
$$

  *****  SOME WEATHER IN NEARBY STATES *****

CITY           SKY/WX    TMP DP  RH WIND       PRES   REMARKS
GLASGOW MT     FAIR      76  36  23 NW9       30.23S
GREAT FALLS MT FAIR      79  37  22 VRB3      30.23F
CHEYENNE WY    PTSUNNY   69  48  47 E10       30.36F
SCOTTSBLUFF NE FAIR      77  42  28 E8        30.27F
OMAHA NE       FAIR      77  42  28 W12       30.25F
DES MOINES IA  FAIR      75  42  30 NW18G24   30.21F
DAVENPORT IA   PTSUNNY   67  49  52 NW14      30.17S
CHICAGO IL     PTSUNNY   70  46  42 W16G25    30.07F
EAU CLAIRE WI  CLOUDY    62  52  69 N13       30.09R
LA CROSSE WI   CLOUDY    69  54  58 W12       30.10F
$$

  *****  SOME NATIONAL WEATHER *****

CITY           SKY/WX    TMP DP  RH WIND       PRES   REMARKS
LA GUARDIA NY  PTSUNNY   80  56  43 S12       29.92F
RALEIGH NC     PTSUNNY   83  63  50 NW8       30.05F
ATLANTA GA     PTSUNNY   80  59  48 NW13      30.11F
NEW ORLEANS LA LGT RAIN  85  74  69 NE10      30.09F HX  92
OKLAHOMA CITY  PTSUNNY   85  44  23 SE14      30.20F
ALBUQUERQUE NM PTSUNNY   90  47  22 NE5       30.19F
SALT LAKE CITY FAIR      91  39  16 NW7       30.15F
LOS ANGELES CA FAIR      74  60  61 W18       29.89S
BOISE ID       FAIR      94  39  14 CALM      30.06F HX  90
SEATTLE WA     PTSUNNY   93  51  23 VRB3      29.87F HX  90
$$

*** WEATHER ACROSS MANITOBA...SASKATCHEWAN AND ONTARIO ***
                ***ONTARIO***

CITY           SKY/WX    TMP DP  RH WIND       PRES   REMARKS
GERALDTON      PTSUNNY   59  36  41 N8G20     30.03S
THUNDER BAY    LGT RAIN  55  52  88 W5        30.03S
SIOUX LOOKOUT  CLOUDY    57  41  54 N10       30.09S
TORONTO        MOSUNNY   68  48  49 W15G22    29.93S
BIG TROUT LK   MOSUNNY   63  36  36 VRB2      30.00F
PICKLE LAKE    PTSUNNY   61  37  41 W6        30.04F
DRYDEN         CLOUDY    57  41  54 NE3       30.11S
KENORA         PTSUNNY   55  45  67 E10       30.14F
$$
                *** MANITOBA***

CITY           SKY/WX    TMP DP  RH WIND       PRES   REMARKS
BRANDON        PTSUNNY   64  41  42 NW7G17    30.23F
DAUPHIN        PTSUNNY   64  43  45 N13       30.23S
ISLAND LAKE    MOSUNNY   66  43  42 W7        30.05F
PILOT MOUND      N/A     59  39  47 N9          N/A
THE PAS        MOSUNNY   70  36  28 NW13G18   30.19F
THOMPSON       MOSUNNY   64  39  39 N16G24    30.09F
WINNIPEG       PTSUNNY   59  45  58 NW13G23   30.21R
LYNN LAKE      PTSUNNY   66  37  34 NW15G24   30.15F
CHURCHILL      PTSUNNY   50  37  62 N10       30.07S
GILLAM         PTSUNNY   59  46  63 NE12G21   30.05S
$$
                ***SASKATCHEWAN***

CITY           SKY/WX    TMP DP  RH WIND       PRES   REMARKS
ESTEVAN        MOSUNNY   66  43  42 N13G18    30.25F
KINDERSLEY     MOSUNNY   70  45  40 S5        30.25F
LLOYDMINSTER   MOSUNNY   70  41  35 SW3       30.24F
PRINCE ALBERT  MOSUNNY   68  37  32 CALM      30.28F
REGINA         PTSUNNY   70  41  35 NW8       30.26F
YORKTON        PTSUNNY   64  36  34 VRB5      30.26F
N. BATTLEFORD  PTSUNNY   70  41  35 VRB2      30.28F
LA RONGE       MOSUNNY   68  37  32 S8        30.23F
SASKATOON      PTSUNNY   66  41  39 N6        30.28F
SWIFT CURRENT  MOSUNNY   68  43  40 W9        30.26F
$$
NOTE: THESE ARE AUTOMATED STATIONS WITH LIMITED QUALITY CONTROL
      "FAIR" INDICATES FEW OR NO CLOUDS BELOW 12,000 FEET WITH NO
      SIGNIFICANT WEATHER AND/OR OBSTRUCTIONS TO VISIBILITY.
      SKY/WX - SKY CONDITION AND SIGNIFICANT WEATHER.
      TMP - AIR TEMPERATURE.    DP   - DEWPOINT TEMPERATURE.
      RH  - RELATIVE HUMIDITY.  PRES - PRESSURE.
      HX  - HEAT INDEX.         WCI  - WIND CHILL INDEX.
$




USA.gov is the U.S. government's official web portal to all federal, state and local government web resources and services.